Weather History for Charlottesville, VA

Change the Weather History Date:

Sunday, September 29, 2013

  Actual Average Record
Temperature  
Mean Temperature 62 °F 62 °F  
Max Temperature 73 °F 73 °F 94 °F (1954)
Min Temperature 50 °F 50 °F 40 °F (1991)
Degree Days  
Heating Degree Days 3 5  
Month to date heating degree days 66 49  
Since 1 July heating degree days 71 52  
Cooling Degree Days 0 1  
Month to date cooling degree days 106 109  
Year to date cooling degree days 1108 1019  
Growing Degree Days 11 (Base 50)    
Moisture  
Dew Point 50 °F    
Average Humidity 71    
Maximum Humidity 100    
Minimum Humidity 41    
Precipitation  
Precipitation 0.00 in 0.18 in 0.58 in (2004)
Month to date precipitation 0.65 4.28  
Year to date precipitation 34.17 32.42  
Sea Level Pressure  
Sea Level Pressure 30.13 in    
Wind  
Wind Speed 1 mph (ENE)    
Max Wind Speed 8 mph    
Max Gust Speed 13 mph    
Visibility 10 miles    
Events      
T = Trace of Precipitation, MM = Missing Value Source: NWS Daily Summary

Daily Weather History Graph

Daily Weather History Graph

Search for Another Location

Airport:

Trip Planner

Search our weather history database for the weather conditions in past years. The results will help you decide how hot, cold, wet, or windy it might be!

Date:

Astronomy

Sep. 29, 2013 Rise Set
Actual Time 7:07 AM EDT 6:59 PM EDT
Civil Twilight 6:41 AM EDT 7:25 PM EDT
Nautical Twilight 6:11 AM EDT 7:56 PM EDT
Astronomical Twilight 5:40 AM EDT 8:27 PM EDT
Moon 1:51 AM EDT (9/29) 3:50 PM EDT (9/29)
Length of Visible Light 12h 44m
Length of Day
11h 51m
Waning Crescent, 27% of the Moon is Illuminated
Sep 29
Waning Crescent
Oct 4
New
Oct 11
First Quarter
Oct 18
Full
Oct 26
Last Quarter

Hourly Weather History & Observations

Time (EDT) Temp. Dew Point Humidity Pressure Visibility Wind Dir Wind Speed Gust Speed Precip Events Conditions
12:53 AM 57.0 °F 54.0 °F 89% 30.21 in 10.0 mi North 3.5 mph - N/A   Overcast
1:53 AM 55.9 °F 54.0 °F 93% 30.20 in 10.0 mi Calm Calm - N/A   Overcast
2:53 AM 55.9 °F 55.0 °F 97% 30.18 in 10.0 mi Calm Calm - N/A   Overcast
3:53 AM 55.9 °F 54.0 °F 93% 30.18 in 10.0 mi Calm Calm - N/A   Overcast
4:53 AM 54.0 °F 52.0 °F 93% 30.18 in 10.0 mi Calm Calm - N/A   Mostly Cloudy
5:53 AM 51.1 °F 50.0 °F 96% 30.17 in 6.0 mi Calm Calm - N/A   Clear
6:53 AM 52.0 °F 51.1 °F 97% 30.18 in 6.0 mi Calm Calm - N/A   Clear
7:53 AM 53.1 °F 51.1 °F 93% 30.19 in 8.0 mi Calm Calm - N/A   Clear
8:53 AM 57.0 °F 53.1 °F 87% 30.19 in 10.0 mi Calm Calm - N/A   Clear
9:53 AM 61.0 °F 52.0 °F 72% 30.17 in 10.0 mi East 4.6 mph - N/A   Clear
10:53 AM 64.9 °F 52.0 °F 63% 30.17 in 10.0 mi Calm Calm - N/A   Clear
11:53 AM 66.0 °F 48.0 °F 52% 30.15 in 10.0 mi South 4.6 mph - N/A   Partly Cloudy
12:53 PM 69.1 °F 48.0 °F 47% 30.14 in 10.0 mi ESE 3.5 mph - N/A   Clear
1:53 PM 70.0 °F 46.9 °F 44% 30.11 in 10.0 mi Calm Calm - N/A   Partly Cloudy
2:53 PM 70.0 °F 46.0 °F 42% 30.09 in 10.0 mi NNE 3.5 mph - N/A   Scattered Clouds
3:53 PM 71.1 °F 46.0 °F 41% 30.07 in 10.0 mi Calm Calm - N/A   Clear
4:53 PM 71.1 °F 48.0 °F 44% 30.06 in 10.0 mi Calm Calm - N/A   Clear
5:53 PM 69.1 °F 46.0 °F 44% 30.07 in 10.0 mi Calm Calm - N/A   Clear
6:53 PM 66.9 °F 48.0 °F 51% 30.07 in 10.0 mi East 3.5 mph - N/A   Clear
7:53 PM 62.1 °F 48.9 °F 62% 30.07 in 10.0 mi Calm Calm - N/A   Clear
8:53 PM 59.0 °F 51.1 °F 75% 30.08 in 10.0 mi Calm Calm - N/A   Clear
9:53 PM 55.0 °F 52.0 °F 89% 30.08 in 10.0 mi Calm Calm - N/A   Clear
10:53 PM 53.1 °F 50.0 °F 89% 30.08 in 10.0 mi Calm Calm - N/A   Clear
11:53 PM 51.1 °F 50.0 °F 96% 30.07 in 10.0 mi Calm Calm - N/A   Clear